STARLINK-3134 (49434 NORAD) Tracking and Keplerian Element Data

This shows tracking and keplerian element data for the satellite.

Feedback or suggestion? Click here.




ElementValue
Catalog49434
NameSTARLINK-3134
Epoch Orbit367
Epoch Day15.91668981
Epoch Year2022
RAAN185.3558
Inclination53.2173
Eccentricity0.0001406
Argument of Perigee68.5921
Mean Anonmoly121.3741
Mean Motion15.25810265
Decay Rate-0.00651657
L11 49434U 21104AC 22015.91668981 -.00651657 00000+0 -27084-1 0 9993
L22 49434 53.2173 185.3558 0001406 68.5921 121.3741 15.25810265 3674

Live tracking and technical data element details for STARLINK-3134 (NORAD 49434). STARLINK-3134 can be tracked NOW for your location showing map with azimuth and elevation plus other details from your city location.

Track the satellite on the map from your city or location and see movement details for azimuth, elevation, latitude, longitude, range, height, and movement on the map or in text.







IsCatalogInMostPopularTable: catalog: 49434, numindb: 7
Update: records affected: 1



GetName: 49434 STARLINK-3134

Hit Count: updated at: Thu, 20 Jan 2022 17:59:02 GMT